Time,TemperatureF,DewpointF,PressureIn,WindDirection,WindDirectionDegrees,WindSpeedMPH,WindSpeedGustMPH,Humidity,HourlyPrecipIn,Conditions,Clouds,dailyrainin,SoftwareType,DateUTC
2013-07-06 00:01:00,72.5,72.7,30.14,West,270,6.3,10.5,100,0.00,,,0.00,Rainwise IP-100,2013-07-06 04:01:00,
2013-07-06 00:06:00,72.5,72.7,30.14,WNW,292,7.0,11.2,100,0.00,,,0.00,Rainwise IP-100,2013-07-06 04:06:00,
2013-07-06 00:11:00,72.5,72.7,30.15,NW,315,4.7,9.6,100,0.00,,,0.00,Rainwise IP-100,2013-07-06 04:11:00,
2013-07-06 00:16:00,72.5,72.7,30.15,WNW,292,4.2,11.4,100,0.00,,,0.00,Rainwise IP-100,2013-07-06 04:16:00,
2013-07-06 00:21:00,72.5,72.7,30.14,WNW,292,6.5,9.3,100,0.00,,,0.00,Rainwise IP-100,2013-07-06 04:21:00,
2013-07-06 00:26:00,72.5,72.7,30.15,West,270,4.7,8.6,100,0.00,,,0.00,Rainwise IP-100,2013-07-06 04:26:00,
2013-07-06 00:31:00,72.5,72.7,30.14,WSW,247,3.0,5.6,100,0.00,,,0.00,Rainwise IP-100,2013-07-06 04:31:00,
2013-07-06 00:36:00,72.5,72.7,30.15,WNW,292,1.4,6.8,100,0.00,,,0.00,Rainwise IP-100,2013-07-06 04:36:00,
2013-07-06 00:41:00,72.4,72.3,30.15,WNW,292,6.3,7.7,100,0.00,,,0.00,Rainwise IP-100,2013-07-06 04:41:00,
2013-07-06 00:46:00,72.4,72.3,30.15,WNW,292,4.2,7.5,100,0.00,,,0.00,Rainwise IP-100,2013-07-06 04:46:00,
2013-07-06 00:51:00,72.5,72.7,30.15,SW,225,3.3,7.9,100,0.00,,,0.00,Rainwise IP-100,2013-07-06 04:51:00,
2013-07-06 00:56:00,72.6,72.7,30.15,WNW,292,3.0,9.1,100,0.00,,,0.00,Rainwise IP-100,2013-07-06 04:56:00,
2013-07-06 01:01:00,72.7,72.7,30.14,West,270,4.7,8.2,100,0.00,,,0.00,Rainwise IP-100,2013-07-06 05:01:00,
2013-07-06 01:06:00,72.7,72.7,30.15,WSW,247,1.6,8.4,100,0.00,,,0.00,Rainwise IP-100,2013-07-06 05:06:00,
2013-07-06 01:11:00,72.7,72.7,30.14,WNW,292,4.2,9.1,100,0.00,,,0.00,Rainwise IP-100,2013-07-06 05:11:00,
2013-07-06 01:16:00,72.9,73.0,30.14,WNW,292,5.4,8.4,100,0.00,,,0.00,Rainwise IP-100,2013-07-06 05:16:00,
2013-07-06 01:21:00,72.9,73.0,30.14,West,270,7.2,8.6,100,0.00,,,0.00,Rainwise IP-100,2013-07-06 05:21:00,
2013-07-06 01:26:00,72.9,73.0,30.14,WNW,292,3.5,7.7,100,0.00,,,0.00,Rainwise IP-100,2013-07-06 05:26:00,
2013-07-06 01:31:00,72.9,73.0,30.14,WNW,292,4.7,11.2,100,0.00,,,0.00,Rainwise IP-100,2013-07-06 05:31:00,
2013-07-06 01:36:00,73.0,72.7,30.14,WNW,292,1.6,8.4,99,0.00,,,0.00,Rainwise IP-100,2013-07-06 05:36:00,
2013-07-06 01:41:00,72.9,72.7,30.14,WSW,247,2.3,8.6,99,0.00,,,0.00,Rainwise IP-100,2013-07-06 05:41:00,
2013-07-06 01:46:00,72.6,72.3,30.14,WSW,247,4.0,6.3,99,0.00,,,0.00,Rainwise IP-100,2013-07-06 05:46:00,
2013-07-06 01:51:00,72.5,72.3,30.14,WNW,292,3.3,8.2,99,0.00,,,0.00,Rainwise IP-100,2013-07-06 05:51:00,
2013-07-06 01:56:00,72.5,72.3,30.14,West,270,3.3,5.1,99,0.00,,,0.00,Rainwise IP-100,2013-07-06 05:56:00,
2013-07-06 02:01:00,72.6,72.3,30.14,WNW,292,3.3,6.8,99,0.00,,,0.00,Rainwise IP-100,2013-07-06 06:01:00,
2013-07-06 02:06:00,72.7,72.7,30.14,WNW,292,2.3,8.2,100,0.00,,,0.00,Rainwise IP-100,2013-07-06 06:06:00,
2013-07-06 02:11:00,72.9,73.0,30.14,WNW,292,9.6,13.3,100,0.00,,,0.00,Rainwise IP-100,2013-07-06 06:11:00,
2013-07-06 02:16:00,73.1,72.7,30.14,NNW,337,4.2,9.6,99,0.00,,,0.00,Rainwise IP-100,2013-07-06 06:16:00,
2013-07-06 02:21:00,73.3,73.0,30.14,WNW,292,7.0,8.9,99,0.00,,,0.00,Rainwise IP-100,2013-07-06 06:21:00,
2013-07-06 02:26:00,73.4,73.0,30.15,WSW,247,6.8,14.0,99,0.00,,,0.00,Rainwise IP-100,2013-07-06 06:26:00,
2013-07-06 02:31:00,73.4,72.7,30.14,WNW,292,5.8,12.6,98,0.00,,,0.00,Rainwise IP-100,2013-07-06 06:31:00,
2013-07-06 02:36:00,73.5,73.0,30.14,WNW,292,5.6,11.2,98,0.00,,,0.00,Rainwise IP-100,2013-07-06 06:36:00,
2013-07-06 02:41:00,73.5,73.0,30.15,WNW,292,3.7,9.8,98,0.00,,,0.00,Rainwise IP-100,2013-07-06 06:41:00,
2013-07-06 02:46:00,73.5,73.0,30.14,WNW,292,3.5,10.5,98,0.00,,,0.00,Rainwise IP-100,2013-07-06 06:46:00,
2013-07-06 02:51:00,73.5,73.0,30.15,West,270,1.9,7.9,98,0.00,,,0.00,Rainwise IP-100,2013-07-06 06:51:00,
2013-07-06 02:56:00,73.5,73.0,30.14,WNW,292,4.2,9.1,98,0.00,,,0.00,Rainwise IP-100,2013-07-06 06:56:00,
2013-07-06 03:01:00,73.4,72.7,30.14,WNW,292,3.0,7.0,98,0.00,,,0.00,Rainwise IP-100,2013-07-06 07:01:00,
2013-07-06 03:06:00,73.4,72.7,30.14,WNW,292,3.5,9.3,98,0.00,,,0.00,Rainwise IP-100,2013-07-06 07:06:00,
2013-07-06 03:11:00,73.4,72.7,30.14,WNW,292,3.7,8.6,98,0.00,,,0.00,Rainwise IP-100,2013-07-06 07:11:00,
2013-07-06 03:16:00,73.3,72.7,30.14,WSW,247,2.3,6.8,98,0.00,,,0.00,Rainwise IP-100,2013-07-06 07:16:00,
2013-07-06 03:21:00,73.1,72.3,30.15,West,270,0.0,3.7,98,0.00,,,0.00,Rainwise IP-100,2013-07-06 07:21:00,
2013-07-06 03:26:00,72.8,72.0,30.15,WSW,247,1.6,4.4,98,0.00,,,0.00,Rainwise IP-100,2013-07-06 07:26:00,
2013-07-06 03:31:00,72.6,72.0,30.15,West,270,0.0,4.2,98,0.00,,,0.00,Rainwise IP-100,2013-07-06 07:31:00,
2013-07-06 03:36:00,72.4,71.7,30.14,SW,225,1.4,3.0,98,0.00,,,0.00,Rainwise IP-100,2013-07-06 07:36:00,
2013-07-06 03:41:00,72.3,72.0,30.15,WSW,247,2.3,4.4,99,0.00,,,0.00,Rainwise IP-100,2013-07-06 07:41:00,
2013-07-06 03:46:00,72.3,72.0,30.14,SSW,202,0.0,4.0,99,0.00,,,0.00,Rainwise IP-100,2013-07-06 07:46:00,
2013-07-06 03:51:00,72.3,72.0,30.14,WSW,247,2.6,5.6,99,0.00,,,0.00,Rainwise IP-100,2013-07-06 07:51:00,
2013-07-06 03:56:00,72.3,72.0,30.14,WSW,247,0.0,4.0,99,0.00,,,0.00,Rainwise IP-100,2013-07-06 07:56:00,
2013-07-06 04:01:00,72.3,72.0,30.14,WSW,247,3.7,4.9,99,0.00,,,0.00,Rainwise IP-100,2013-07-06 08:01:00,
2013-07-06 04:06:00,72.3,72.0,30.14,SW,225,3.5,5.6,99,0.00,,,0.00,Rainwise IP-100,2013-07-06 08:06:00,
2013-07-06 04:11:00,72.3,72.0,30.14,SSW,202,2.3,4.9,99,0.00,,,0.00,Rainwise IP-100,2013-07-06 08:11:00,
2013-07-06 04:16:00,72.2,72.0,30.14,WSW,247,1.9,5.1,99,0.00,,,0.00,Rainwise IP-100,2013-07-06 08:16:00,
2013-07-06 04:21:00,72.1,71.7,30.14,West,270,1.6,5.1,99,0.00,,,0.00,Rainwise IP-100,2013-07-06 08:21:00,
2013-07-06 04:26:00,72.1,71.7,30.14,WNW,292,0.0,4.0,99,0.00,,,0.00,Rainwise IP-100,2013-07-06 08:26:00,
2013-07-06 04:31:00,72.0,71.7,30.14,WNW,292,3.5,5.8,99,0.00,,,0.00,Rainwise IP-100,2013-07-06 08:31:00,
2013-07-06 04:36:00,71.9,72.0,30.14,WNW,292,1.2,4.4,100,0.00,,,0.00,Rainwise IP-100,2013-07-06 08:36:00,
2013-07-06 04:41:00,71.8,71.7,30.14,NW,315,4.2,5.8,100,0.00,,,0.00,Rainwise IP-100,2013-07-06 08:41:00,
2013-07-06 04:46:00,71.7,71.7,30.14,SSW,202,2.8,4.9,100,0.00,,,0.00,Rainwise IP-100,2013-07-06 08:46:00,
2013-07-06 04:51:00,71.6,71.7,30.14,WSW,247,4.0,5.6,100,0.00,,,0.00,Rainwise IP-100,2013-07-06 08:51:00,
2013-07-06 04:56:00,71.6,71.7,30.14,SSW,202,7.5,7.5,100,0.00,,,0.00,Rainwise IP-100,2013-07-06 08:56:00,
2013-07-06 05:01:00,71.6,71.7,30.14,West,270,2.1,7.5,100,0.00,,,0.00,Rainwise IP-100,2013-07-06 09:01:00,
2013-07-06 05:06:00,71.5,71.7,30.14,WNW,292,0.0,3.3,100,0.00,,,0.00,Rainwise IP-100,2013-07-06 09:06:00,
2013-07-06 05:11:00,71.5,71.7,30.14,WNW,292,3.5,4.0,100,0.00,,,0.00,Rainwise IP-100,2013-07-06 09:11:00,
2013-07-06 05:16:00,71.5,71.7,30.14,West,270,1.4,3.5,100,0.00,,,0.00,Rainwise IP-100,2013-07-06 09:16:00,
2013-07-06 05:21:00,71.5,71.7,30.14,WNW,292,1.4,4.0,100,0.00,,,0.00,Rainwise IP-100,2013-07-06 09:21:00,
2013-07-06 05:26:00,71.6,71.7,30.14,WSW,247,2.8,3.5,100,0.00,,,0.00,Rainwise IP-100,2013-07-06 09:26:00,
2013-07-06 05:31:00,71.6,71.7,30.14,SW,225,3.7,5.1,100,0.00,,,0.00,Rainwise IP-100,2013-07-06 09:31:00,
2013-07-06 05:36:00,71.6,71.7,30.14,WSW,247,2.1,4.4,100,0.00,,,0.00,Rainwise IP-100,2013-07-06 09:36:00,
2013-07-06 05:41:00,71.6,71.7,30.14,WSW,247,1.2,3.5,100,0.00,,,0.00,Rainwise IP-100,2013-07-06 09:41:00,
2013-07-06 05:46:00,71.6,71.7,30.14,West,270,1.9,4.0,100,0.00,,,0.00,Rainwise IP-100,2013-07-06 09:46:00,
2013-07-06 05:51:00,71.7,71.7,30.14,WSW,247,1.9,7.2,100,0.00,,,0.00,Rainwise IP-100,2013-07-06 09:51:00,
2013-07-06 05:56:00,71.8,71.7,30.14,WSW,247,3.3,4.9,100,0.00,,,0.00,Rainwise IP-100,2013-07-06 09:56:00,
2013-07-06 06:01:00,71.9,72.0,30.14,WNW,292,0.0,5.1,100,0.00,,,0.00,Rainwise IP-100,2013-07-06 10:01:00,
2013-07-06 06:06:00,72.0,72.0,30.15,West,270,4.2,4.2,100,0.00,,,0.00,Rainwise IP-100,2013-07-06 10:06:00,
2013-07-06 06:11:00,72.1,72.0,30.14,West,270,1.4,4.9,100,0.00,,,0.00,Rainwise IP-100,2013-07-06 10:11:00,
2013-07-06 06:16:00,72.3,72.3,30.14,West,270,0.0,4.2,100,0.00,,,0.00,Rainwise IP-100,2013-07-06 10:16:00,
2013-07-06 06:21:00,72.6,72.7,30.14,West,270,0.0,4.7,100,0.00,,,0.00,Rainwise IP-100,2013-07-06 10:21:00,
2013-07-06 06:26:00,72.8,72.7,30.14,WSW,247,2.3,3.5,100,0.00,,,0.00,Rainwise IP-100,2013-07-06 10:26:00,
2013-07-06 06:31:00,72.9,73.0,30.14,SSW,202,0.0,4.2,100,0.00,,,0.00,Rainwise IP-100,2013-07-06 10:31:00,
2013-07-06 06:36:00,73.2,73.3,30.15,WNW,292,3.0,4.0,100,0.00,,,0.00,Rainwise IP-100,2013-07-06 10:36:00,
2013-07-06 06:41:00,73.5,73.7,30.15,WSW,247,3.3,4.2,100,0.00,,,0.00,Rainwise IP-100,2013-07-06 10:41:00,
2013-07-06 06:46:00,73.9,74.0,30.14,West,270,5.1,6.5,100,0.00,,,0.00,Rainwise IP-100,2013-07-06 10:46:00,
2013-07-06 06:51:00,74.4,74.0,30.14,West,270,5.1,6.1,99,0.00,,,0.00,Rainwise IP-100,2013-07-06 10:51:00,
2013-07-06 06:56:00,75.0,74.3,30.14,WNW,292,3.3,9.8,98,0.00,,,0.00,Rainwise IP-100,2013-07-06 10:56:00,
2013-07-06 07:01:00,75.5,74.7,30.15,West,270,2.3,5.4,98,0.00,,,0.00,Rainwise IP-100,2013-07-06 11:01:00,
2013-07-06 07:06:00,75.9,74.7,30.14,West,270,3.7,10.7,97,0.00,,,0.00,Rainwise IP-100,2013-07-06 11:06:00,
2013-07-06 07:11:00,76.3,74.7,30.15,WNW,292,1.2,8.4,96,0.00,,,0.00,Rainwise IP-100,2013-07-06 11:11:00,
2013-07-06 07:16:00,76.6,74.7,30.14,WNW,292,5.6,6.8,95,0.00,,,0.00,Rainwise IP-100,2013-07-06 11:16:00,
2013-07-06 07:21:00,76.8,75.0,30.15,WNW,292,2.8,11.2,95,0.00,,,0.00,Rainwise IP-100,2013-07-06 11:21:00,
2013-07-06 07:26:00,77.2,75.5,30.15,WSW,247,1.6,7.2,94,0.00,,,0.00,Rainwise IP-100,2013-07-06 11:26:00,
2013-07-06 07:31:00,77.3,75.5,30.14,West,270,3.0,8.4,94,0.00,,,0.00,Rainwise IP-100,2013-07-06 11:31:00,
2013-07-06 07:35:00,77.3,75.0,30.14,WNW,292,2.6,8.9,93,0.00,,,0.00,Rainwise IP-100,2013-07-06 11:35:00,
2013-07-06 07:40:00,77.4,75.0,30.15,WNW,292,4.2,6.3,93,0.00,,,0.00,Rainwise IP-100,2013-07-06 11:40:00,
2013-07-06 07:45:00,77.3,75.0,30.15,WNW,292,3.3,5.6,93,0.00,,,0.00,Rainwise IP-100,2013-07-06 11:45:00,
2013-07-06 07:50:00,77.4,74.7,30.14,NW,315,5.1,5.6,92,0.00,,,0.00,Rainwise IP-100,2013-07-06 11:50:00,
2013-07-06 07:55:00,77.5,75.0,30.14,NNW,337,2.3,12.1,92,0.00,,,0.00,Rainwise IP-100,2013-07-06 11:55:00,
2013-07-06 08:00:00,77.8,74.7,30.14,WNW,292,5.4,11.7,91,0.00,,,0.00,Rainwise IP-100,2013-07-06 12:00:00,
2013-07-06 08:05:00,77.9,75.0,30.14,WSW,247,3.7,14.9,91,0.00,,,0.00,Rainwise IP-100,2013-07-06 12:05:00,
2013-07-06 08:07:00,77.9,75.0,30.14,West,270,5.4,14.9,91,0.00,,,0.00,Rainwise IP-100,2013-07-06 12:07:00,
2013-07-06 08:12:00,77.9,75.0,30.14,WNW,292,8.9,11.4,91,0.00,,,0.00,Rainwise IP-100,2013-07-06 12:12:00,
2013-07-06 08:17:00,77.8,74.7,30.14,WNW,292,5.1,11.0,91,0.00,,,0.00,Rainwise IP-100,2013-07-06 12:17:00,
2013-07-06 08:22:00,78.0,75.0,30.14,WNW,292,4.0,10.3,91,0.00,,,0.00,Rainwise IP-100,2013-07-06 12:22:00,
2013-07-06 08:27:00,78.0,74.7,30.14,WNW,292,4.9,11.0,90,0.00,,,0.00,Rainwise IP-100,2013-07-06 12:27:00,
2013-07-06 08:32:00,78.0,74.7,30.14,WNW,292,5.6,8.4,90,0.00,,,0.00,Rainwise IP-100,2013-07-06 12:32:00,
2013-07-06 08:45:00,78.4,75.0,30.14,West,270,4.4,9.6,90,0.00,,,0.00,Rainwise IP-100,2013-07-06 12:45:00,
2013-07-06 08:51:00,78.4,74.7,30.14,WNW,292,3.0,10.5,89,0.00,,,0.00,Rainwise IP-100,2013-07-06 12:51:00,
2013-07-06 08:56:00,78.2,74.7,30.14,WNW,292,4.4,8.2,89,0.00,,,0.00,Rainwise IP-100,2013-07-06 12:56:00,
2013-07-06 09:01:00,78.4,74.7,30.14,WNW,292,6.1,7.2,89,0.00,,,0.00,Rainwise IP-100,2013-07-06 13:01:00,
2013-07-06 09:06:00,78.6,75.0,30.13,WNW,292,4.2,7.7,89,0.00,,,0.00,Rainwise IP-100,2013-07-06 13:06:00,
2013-07-06 09:11:00,78.8,74.7,30.13,WNW,292,3.3,7.7,88,0.00,,,0.00,Rainwise IP-100,2013-07-06 13:11:00,
2013-07-06 09:16:00,78.8,74.7,30.13,WNW,292,2.6,8.9,88,0.00,,,0.00,Rainwise IP-100,2013-07-06 13:16:00,
2013-07-06 09:21:00,78.7,74.7,30.13,West,270,1.4,7.0,88,0.00,,,0.00,Rainwise IP-100,2013-07-06 13:21:00,
2013-07-06 09:26:00,78.4,74.0,30.12,WSW,247,3.7,7.0,87,0.00,,,0.00,Rainwise IP-100,2013-07-06 13:26:00,
2013-07-06 09:31:00,78.2,74.0,30.12,WSW,247,6.1,7.7,87,0.00,,,0.00,Rainwise IP-100,2013-07-06 13:31:00,
2013-07-06 09:36:00,78.3,74.3,30.12,WNW,292,4.9,7.5,88,0.00,,,0.00,Rainwise IP-100,2013-07-06 13:36:00,
2013-07-06 09:41:00,78.4,74.3,30.12,WNW,292,6.5,7.7,88,0.00,,,0.00,Rainwise IP-100,2013-07-06 13:41:00,
2013-07-06 09:46:00,78.4,74.3,30.12,NNW,337,4.2,11.0,88,0.00,,,0.00,Rainwise IP-100,2013-07-06 13:46:00,
2013-07-06 09:51:00,78.4,74.3,30.12,WNW,292,3.3,6.8,88,0.00,,,0.00,Rainwise IP-100,2013-07-06 13:51:00,
2013-07-06 09:56:00,78.9,74.7,30.12,SSW,202,4.9,9.3,87,0.00,,,0.00,Rainwise IP-100,2013-07-06 13:56:00,
2013-07-06 10:01:00,79.1,74.7,30.11,WNW,292,3.0,9.6,87,0.00,,,0.00,Rainwise IP-100,2013-07-06 14:01:00,
2013-07-06 10:06:00,79.2,75.0,30.11,WSW,247,3.3,8.4,87,0.00,,,0.00,Rainwise IP-100,2013-07-06 14:06:00,
2013-07-06 10:11:00,79.4,75.0,30.11,WSW,247,3.7,9.1,87,0.00,,,0.00,Rainwise IP-100,2013-07-06 14:11:00,
2013-07-06 10:16:00,79.5,75.0,30.12,WNW,292,2.1,9.1,86,0.00,,,0.00,Rainwise IP-100,2013-07-06 14:16:00,
2013-07-06 10:21:00,79.8,75.0,30.12,SW,225,2.3,7.2,86,0.00,,,0.00,Rainwise IP-100,2013-07-06 14:21:00,
2013-07-06 10:26:00,80.3,75.5,30.11,WSW,247,2.8,6.1,86,0.00,,,0.00,Rainwise IP-100,2013-07-06 14:26:00,
2013-07-06 10:31:00,80.5,75.5,30.11,SSW,202,2.6,8.9,85,0.00,,,0.00,Rainwise IP-100,2013-07-06 14:31:00,
2013-07-06 10:36:00,80.4,75.0,30.11,WSW,247,7.5,7.9,84,0.00,,,0.00,Rainwise IP-100,2013-07-06 14:36:00,
2013-07-06 10:41:00,80.1,74.7,30.11,SW,225,5.4,9.6,84,0.00,,,0.00,Rainwise IP-100,2013-07-06 14:41:00,
2013-07-06 10:46:00,79.5,74.3,30.11,WSW,247,4.9,10.3,84,0.00,,,0.00,Rainwise IP-100,2013-07-06 14:46:00,
2013-07-06 10:51:00,79.1,74.0,30.11,SW,225,3.5,9.1,85,0.00,,,0.00,Rainwise IP-100,2013-07-06 14:51:00,
2013-07-06 10:56:00,78.6,73.7,30.11,WNW,292,5.4,8.6,85,0.00,,,0.00,Rainwise IP-100,2013-07-06 14:56:00,
2013-07-06 11:01:00,78.3,73.7,30.11,WNW,292,6.1,8.9,86,0.00,,,0.00,Rainwise IP-100,2013-07-06 15:01:00,
2013-07-06 11:06:00,78.3,73.7,30.11,West,270,1.6,10.5,86,0.00,,,0.00,Rainwise IP-100,2013-07-06 15:06:00,
2013-07-06 11:11:00,78.4,73.7,30.11,WNW,292,7.7,8.9,86,0.00,,,0.00,Rainwise IP-100,2013-07-06 15:11:00,
2013-07-06 11:16:00,78.5,74.0,30.10,WSW,247,4.4,7.7,86,0.00,,,0.00,Rainwise IP-100,2013-07-06 15:16:00,
2013-07-06 11:21:00,78.9,74.3,30.11,West,270,2.6,7.7,86,0.00,,,0.00,Rainwise IP-100,2013-07-06 15:21:00,
2013-07-06 11:26:00,79.3,74.7,30.10,WNW,292,5.4,9.8,86,0.00,,,0.00,Rainwise IP-100,2013-07-06 15:26:00,
2013-07-06 11:31:00,79.2,74.3,30.11,WNW,292,1.9,9.1,85,0.00,,,0.00,Rainwise IP-100,2013-07-06 15:31:00,
2013-07-06 11:36:00,78.8,74.0,30.11,WNW,292,4.7,10.3,86,0.00,,,0.00,Rainwise IP-100,2013-07-06 15:36:00,
2013-07-06 11:41:00,78.6,74.0,30.11,WSW,247,2.6,7.0,86,0.00,,,0.00,Rainwise IP-100,2013-07-06 15:41:00,
2013-07-06 11:46:00,79.0,74.3,30.10,SW,225,0.0,7.5,86,0.00,,,0.00,Rainwise IP-100,2013-07-06 15:46:00,
2013-07-06 11:51:00,79.7,75.0,30.11,WNW,292,5.4,7.7,86,0.00,,,0.00,Rainwise IP-100,2013-07-06 15:51:00,
2013-07-06 11:56:00,80.2,75.0,30.11,WSW,247,3.3,8.9,85,0.00,,,0.00,Rainwise IP-100,2013-07-06 15:56:00,
2013-07-06 12:01:00,80.5,75.0,30.11,WNW,292,0.0,7.5,84,0.00,,,0.00,Rainwise IP-100,2013-07-06 16:01:00,
2013-07-06 12:06:00,80.9,75.5,30.10,WNW,292,1.6,7.0,83,0.00,,,0.00,Rainwise IP-100,2013-07-06 16:06:00,
2013-07-06 12:11:00,80.8,75.0,30.10,WSW,247,2.6,9.6,83,0.00,,,0.00,Rainwise IP-100,2013-07-06 16:11:00,
2013-07-06 12:16:00,80.2,74.3,30.10,WSW,247,4.2,12.1,83,0.00,,,0.00,Rainwise IP-100,2013-07-06 16:16:00,
2013-07-06 12:21:00,80.1,74.7,30.10,SSW,202,3.5,8.2,84,0.00,,,0.00,Rainwise IP-100,2013-07-06 16:21:00,
2013-07-06 12:26:00,80.3,74.7,30.10,WNW,292,3.5,9.1,84,0.00,,,0.00,Rainwise IP-100,2013-07-06 16:26:00,
2013-07-06 12:31:00,80.6,75.0,30.09,West,270,2.8,7.0,84,0.00,,,0.00,Rainwise IP-100,2013-07-06 16:31:00,
2013-07-06 12:36:00,80.6,74.7,30.10,WNW,292,4.0,9.8,83,0.00,,,0.00,Rainwise IP-100,2013-07-06 16:36:00,
2013-07-06 12:41:00,80.3,74.3,30.09,SW,225,3.0,9.8,83,0.00,,,0.00,Rainwise IP-100,2013-07-06 16:41:00,
2013-07-06 12:46:00,80.6,75.0,30.10,WNW,292,2.8,7.2,84,0.00,,,0.00,Rainwise IP-100,2013-07-06 16:46:00,
2013-07-06 12:51:00,80.8,75.0,30.09,West,270,3.7,9.1,83,0.00,,,0.00,Rainwise IP-100,2013-07-06 16:51:00,
2013-07-06 12:56:00,80.5,74.7,30.09,SSW,202,3.7,9.8,83,0.00,,,0.00,Rainwise IP-100,2013-07-06 16:56:00,
2013-07-06 13:01:00,80.6,74.7,30.09,SSW,202,7.0,7.7,83,0.00,,,0.00,Rainwise IP-100,2013-07-06 17:01:00,
2013-07-06 13:06:00,80.9,75.5,30.09,West,270,1.9,10.3,83,0.00,,,0.00,Rainwise IP-100,2013-07-06 17:06:00,
2013-07-06 13:11:00,80.9,75.5,30.09,SSW,202,3.3,8.2,83,0.00,,,0.00,Rainwise IP-100,2013-07-06 17:11:00,
2013-07-06 13:16:00,80.7,75.0,30.08,WSW,247,5.4,9.3,83,0.00,,,0.00,Rainwise IP-100,2013-07-06 17:16:00,
2013-07-06 13:21:00,80.5,74.7,30.08,NW,315,6.5,10.3,83,0.00,,,0.00,Rainwise IP-100,2013-07-06 17:21:00,
2013-07-06 13:26:00,80.5,74.7,30.09,WNW,292,1.9,8.4,83,0.00,,,0.00,Rainwise IP-100,2013-07-06 17:26:00,
2013-07-06 13:31:00,80.6,74.7,30.09,WNW,292,3.7,7.7,83,0.00,,,0.00,Rainwise IP-100,2013-07-06 17:31:00,
2013-07-06 13:36:00,80.7,75.0,30.08,SW,225,4.0,11.4,83,0.00,,,0.00,Rainwise IP-100,2013-07-06 17:36:00,
2013-07-06 13:41:00,80.9,75.5,30.09,WNW,292,2.8,8.2,83,0.00,,,0.00,Rainwise IP-100,2013-07-06 17:41:00,
2013-07-06 13:46:00,81.2,76.0,30.09,West,270,4.7,10.3,83,0.00,,,0.00,Rainwise IP-100,2013-07-06 17:46:00,
2013-07-06 13:51:00,81.3,75.5,30.09,West,270,5.1,10.3,82,0.00,,,0.00,Rainwise IP-100,2013-07-06 17:51:00,
2013-07-06 13:56:00,81.2,75.5,30.09,WSW,247,2.3,8.9,82,0.00,,,0.00,Rainwise IP-100,2013-07-06 17:56:00,
2013-07-06 14:01:00,81.1,75.0,30.08,WNW,292,2.8,8.6,82,0.00,,,0.00,Rainwise IP-100,2013-07-06 18:01:00,
2013-07-06 14:06:00,80.7,74.7,30.08,WNW,292,4.0,9.8,82,0.00,,,0.00,Rainwise IP-100,2013-07-06 18:06:00,
2013-07-06 14:11:00,80.6,74.7,30.08,WSW,247,3.7,11.2,83,0.00,,,0.00,Rainwise IP-100,2013-07-06 18:11:00,
2013-07-06 14:16:00,80.7,75.0,30.08,WNW,292,7.2,7.7,83,0.00,,,0.00,Rainwise IP-100,2013-07-06 18:16:00,
2013-07-06 14:21:00,80.6,74.7,30.08,WSW,247,6.8,8.9,83,0.00,,,0.00,Rainwise IP-100,2013-07-06 18:21:00,
2013-07-06 14:26:00,80.8,75.0,30.08,West,270,4.7,10.5,83,0.00,,,0.00,Rainwise IP-100,2013-07-06 18:26:00,
2013-07-06 14:31:00,80.8,75.0,30.08,WNW,292,6.8,11.7,83,0.00,,,0.00,Rainwise IP-100,2013-07-06 18:31:00,
2013-07-06 14:36:00,80.7,75.0,30.08,WNW,292,5.4,8.9,83,0.00,,,0.00,Rainwise IP-100,2013-07-06 18:36:00,
2013-07-06 14:41:00,80.6,74.7,30.08,WNW,292,5.6,9.6,83,0.00,,,0.00,Rainwise IP-100,2013-07-06 18:41:00,
2013-07-06 14:46:00,80.5,74.7,30.07,West,270,2.6,10.5,83,0.00,,,0.00,Rainwise IP-100,2013-07-06 18:46:00,
2013-07-06 14:51:00,80.9,75.5,30.08,SW,225,4.2,10.3,83,0.00,,,0.00,Rainwise IP-100,2013-07-06 18:51:00,
2013-07-06 14:56:00,81.1,75.5,30.07,WSW,247,3.0,9.3,83,0.00,,,0.00,Rainwise IP-100,2013-07-06 18:56:00,
2013-07-06 15:01:00,81.2,75.5,30.07,WNW,292,5.4,9.1,82,0.00,,,0.00,Rainwise IP-100,2013-07-06 19:01:00,
2013-07-06 15:06:00,81.2,75.5,30.07,WSW,247,2.3,8.9,82,0.00,,,0.00,Rainwise IP-100,2013-07-06 19:06:00,
2013-07-06 15:11:00,81.1,75.0,30.07,SSE,157,1.9,10.5,82,0.00,,,0.00,Rainwise IP-100,2013-07-06 19:11:00,
2013-07-06 15:16:00,81.3,75.5,30.07,WSW,247,2.1,8.9,82,0.00,,,0.00,Rainwise IP-100,2013-07-06 19:16:00,
2013-07-06 15:21:00,81.3,75.5,30.07,WSW,247,4.7,10.3,82,0.00,,,0.00,Rainwise IP-100,2013-07-06 19:21:00,
2013-07-06 15:26:00,80.9,75.0,30.07,WNW,292,0.0,8.9,82,0.00,,,0.00,Rainwise IP-100,2013-07-06 19:26:00,
2013-07-06 15:31:00,80.4,74.3,30.07,WSW,247,2.8,10.5,82,0.00,,,0.00,Rainwise IP-100,2013-07-06 19:31:00,
2013-07-06 15:36:00,80.2,74.3,30.07,WSW,247,7.9,9.6,83,0.00,,,0.00,Rainwise IP-100,2013-07-06 19:36:00,
2013-07-06 15:41:00,80.2,74.3,30.07,WSW,247,2.1,9.8,83,0.00,,,0.00,Rainwise IP-100,2013-07-06 19:41:00,
2013-07-06 15:46:00,80.4,74.7,30.06,West,270,5.1,9.1,83,0.00,,,0.00,Rainwise IP-100,2013-07-06 19:46:00,
2013-07-06 15:51:00,80.5,74.7,30.06,West,270,3.3,11.2,83,0.00,,,0.00,Rainwise IP-100,2013-07-06 19:51:00,
2013-07-06 15:56:00,80.7,75.0,30.06,SSW,202,3.3,11.2,83,0.00,,,0.00,Rainwise IP-100,2013-07-06 19:56:00,
2013-07-06 16:01:00,80.9,75.0,30.06,WSW,247,1.6,8.2,82,0.00,,,0.00,Rainwise IP-100,2013-07-06 20:01:00,
2013-07-06 16:06:00,80.8,74.7,30.06,West,270,8.4,10.7,82,0.00,,,0.00,Rainwise IP-100,2013-07-06 20:06:00,
2013-07-06 16:11:00,80.6,74.7,30.06,WSW,247,4.0,14.0,83,0.00,,,0.00,Rainwise IP-100,2013-07-06 20:11:00,
2013-07-06 16:16:00,80.8,75.0,30.06,WNW,292,7.2,10.3,83,0.00,,,0.00,Rainwise IP-100,2013-07-06 20:16:00,
2013-07-06 16:21:00,81.3,75.5,30.06,WNW,292,5.4,9.1,82,0.00,,,0.00,Rainwise IP-100,2013-07-06 20:21:00,
2013-07-06 16:26:00,81.5,75.5,30.06,WSW,247,4.0,11.2,82,0.00,,,0.00,Rainwise IP-100,2013-07-06 20:26:00,
2013-07-06 16:31:00,81.3,75.5,30.06,SSW,202,4.9,11.9,82,0.00,,,0.00,Rainwise IP-100,2013-07-06 20:31:00,
2013-07-06 16:36:00,81.4,75.5,30.06,SSW,202,3.3,11.0,82,0.00,,,0.00,Rainwise IP-100,2013-07-06 20:36:00,
2013-07-06 16:41:00,81.7,75.5,30.06,WNW,292,1.4,11.0,82,0.00,,,0.00,Rainwise IP-100,2013-07-06 20:41:00,
2013-07-06 16:46:00,81.6,75.0,30.06,WNW,292,4.4,9.1,81,0.00,,,0.00,Rainwise IP-100,2013-07-06 20:46:00,
2013-07-06 16:51:00,81.7,75.0,30.05,WSW,247,4.2,7.9,81,0.00,,,0.00,Rainwise IP-100,2013-07-06 20:51:00,
2013-07-06 16:56:00,81.8,75.0,30.05,West,270,7.7,7.7,81,0.00,,,0.00,Rainwise IP-100,2013-07-06 20:56:00,
2013-07-06 17:01:00,81.6,75.0,30.05,SSW,202,4.9,9.8,81,0.00,,,0.00,Rainwise IP-100,2013-07-06 21:01:00,
2013-07-06 17:06:00,81.3,74.7,30.05,SSW,202,1.4,10.3,81,0.00,,,0.00,Rainwise IP-100,2013-07-06 21:06:00,
2013-07-06 17:11:00,81.4,74.7,30.05,SE,135,2.1,8.2,81,0.00,,,0.00,Rainwise IP-100,2013-07-06 21:11:00,
2013-07-06 17:16:00,81.4,74.7,30.04,WSW,247,4.0,7.7,81,0.00,,,0.00,Rainwise IP-100,2013-07-06 21:16:00,
2013-07-06 17:21:00,81.2,74.7,30.04,SW,225,2.8,9.8,81,0.00,,,0.00,Rainwise IP-100,2013-07-06 21:21:00,
2013-07-06 17:26:00,81.1,74.7,30.04,WNW,292,5.1,7.5,81,0.00,,,0.00,Rainwise IP-100,2013-07-06 21:26:00,
2013-07-06 17:31:00,81.1,74.7,30.04,WNW,292,3.3,8.2,81,0.00,,,0.00,Rainwise IP-100,2013-07-06 21:31:00,
2013-07-06 17:36:00,81.1,74.7,30.04,WNW,292,4.4,7.5,81,0.00,,,0.00,Rainwise IP-100,2013-07-06 21:36:00,
2013-07-06 17:41:00,80.6,74.3,30.04,WSW,247,1.2,7.0,82,0.00,,,0.00,Rainwise IP-100,2013-07-06 21:41:00,
2013-07-06 17:46:00,80.5,74.3,30.03,WNW,292,6.5,6.5,82,0.00,,,0.00,Rainwise IP-100,2013-07-06 21:46:00,
2013-07-06 17:51:00,80.4,74.3,30.04,WSW,247,4.2,6.8,82,0.00,,,0.00,Rainwise IP-100,2013-07-06 21:51:00,
2013-07-06 17:56:00,79.8,74.0,30.04,SW,225,4.4,6.5,83,0.00,,,0.00,Rainwise IP-100,2013-07-06 21:56:00,
2013-07-06 18:01:00,79.3,74.0,30.03,WSW,247,5.6,8.6,84,0.00,,,0.00,Rainwise IP-100,2013-07-06 22:01:00,
2013-07-06 18:06:00,79.2,74.0,30.04,WSW,247,2.1,8.4,84,0.00,,,0.00,Rainwise IP-100,2013-07-06 22:06:00,
2013-07-06 18:11:00,79.6,74.3,30.03,WNW,292,3.7,9.3,84,0.00,,,0.00,Rainwise IP-100,2013-07-06 22:11:00,
2013-07-06 18:16:00,80.2,74.7,30.03,WSW,247,1.9,6.5,84,0.00,,,0.00,Rainwise IP-100,2013-07-06 22:16:00,
2013-07-06 18:21:00,80.3,74.3,30.03,WSW,247,6.3,6.5,83,0.00,,,0.00,Rainwise IP-100,2013-07-06 22:21:00,
2013-07-06 18:26:00,80.3,74.3,30.03,WNW,292,4.0,7.2,83,0.00,,,0.00,Rainwise IP-100,2013-07-06 22:26:00,
2013-07-06 18:31:00,80.5,74.7,30.03,West,270,6.1,6.3,83,0.00,,,0.00,Rainwise IP-100,2013-07-06 22:31:00,
2013-07-06 18:36:00,80.6,74.7,30.03,WSW,247,2.8,7.5,83,0.00,,,0.00,Rainwise IP-100,2013-07-06 22:36:00,
2013-07-06 18:41:00,81.0,75.0,30.03,WSW,247,3.0,6.1,82,0.00,,,0.00,Rainwise IP-100,2013-07-06 22:41:00,
2013-07-06 18:46:00,81.5,75.0,30.03,WNW,292,1.4,6.1,81,0.00,,,0.00,Rainwise IP-100,2013-07-06 22:46:00,
2013-07-06 18:51:00,81.5,74.7,30.03,West,270,2.8,6.1,80,0.00,,,0.00,Rainwise IP-100,2013-07-06 22:51:00,
2013-07-06 18:56:00,81.6,74.7,30.03,West,270,3.3,7.0,80,0.00,,,0.00,Rainwise IP-100,2013-07-06 22:56:00,
2013-07-06 19:01:00,81.8,74.7,30.03,WNW,292,0.0,6.3,80,0.00,,,0.00,Rainwise IP-100,2013-07-06 23:01:00,
2013-07-06 19:06:00,81.9,75.0,30.03,WSW,247,1.9,6.1,80,0.00,,,0.00,Rainwise IP-100,2013-07-06 23:06:00,
2013-07-06 19:11:00,81.9,75.0,30.03,SSW,202,4.0,5.8,80,0.00,,,0.00,Rainwise IP-100,2013-07-06 23:11:00,
2013-07-06 19:16:00,81.6,74.7,30.03,SW,225,5.1,5.1,80,0.00,,,0.00,Rainwise IP-100,2013-07-06 23:16:00,
2013-07-06 19:21:00,81.6,74.7,30.03,WNW,292,2.6,5.4,80,0.00,,,0.00,Rainwise IP-100,2013-07-06 23:21:00,
2013-07-06 19:26:00,81.3,74.3,30.03,West,270,3.3,7.2,80,0.00,,,0.00,Rainwise IP-100,2013-07-06 23:26:00,
2013-07-06 19:31:00,80.6,73.7,30.03,West,270,3.7,9.1,80,0.00,,,0.00,Rainwise IP-100,2013-07-06 23:31:00,
2013-07-06 19:36:00,80.3,73.7,30.03,SSE,157,1.9,5.8,81,0.00,,,0.00,Rainwise IP-100,2013-07-06 23:36:00,
2013-07-06 19:41:00,80.0,73.3,30.03,WNW,292,6.1,6.8,81,0.00,,,0.00,Rainwise IP-100,2013-07-06 23:41:00,
2013-07-06 19:46:00,79.5,73.7,30.03,West,270,3.5,7.0,82,0.00,,,0.00,Rainwise IP-100,2013-07-06 23:46:00,
2013-07-06 19:51:00,79.0,73.0,30.03,SSW,202,2.6,5.4,82,0.00,,,0.00,Rainwise IP-100,2013-07-06 23:51:00,
2013-07-06 19:56:00,78.6,73.0,30.03,WNW,292,3.5,5.4,83,0.00,,,0.00,Rainwise IP-100,2013-07-06 23:56:00,
2013-07-06 20:01:00,78.3,73.0,30.03,WNW,292,3.7,4.4,84,0.00,,,0.00,Rainwise IP-100,2013-07-07 00:01:00,
2013-07-06 20:06:00,78.0,73.0,30.03,SSW,202,2.1,4.7,85,0.00,,,0.00,Rainwise IP-100,2013-07-07 00:06:00,
2013-07-06 20:11:00,77.7,73.0,30.04,SW,225,1.6,6.3,85,0.00,,,0.00,Rainwise IP-100,2013-07-07 00:11:00,
2013-07-06 20:16:00,77.6,73.3,30.04,West,270,1.2,6.3,86,0.00,,,0.00,Rainwise IP-100,2013-07-07 00:16:00,
2013-07-06 20:21:00,77.2,73.0,30.04,WNW,292,0.0,4.2,86,0.00,,,0.00,Rainwise IP-100,2013-07-07 00:21:00,
2013-07-06 20:26:00,76.7,72.7,30.04,WSW,247,1.6,5.4,87,0.00,,,0.00,Rainwise IP-100,2013-07-07 00:26:00,
2013-07-06 20:31:00,76.3,72.3,30.04,West,270,2.3,4.7,88,0.00,,,0.00,Rainwise IP-100,2013-07-07 00:31:00,
2013-07-06 20:36:00,76.0,72.3,30.04,WSW,247,2.3,4.9,89,0.00,,,0.00,Rainwise IP-100,2013-07-07 00:36:00,
2013-07-06 20:41:00,75.7,72.0,30.04,WSW,247,1.9,4.7,89,0.00,,,0.00,Rainwise IP-100,2013-07-07 00:41:00,
2013-07-06 20:46:00,75.5,72.3,30.04,WNW,292,2.3,5.8,90,0.00,,,0.00,Rainwise IP-100,2013-07-07 00:46:00,
2013-07-06 20:51:00,75.5,72.3,30.04,WNW,292,4.2,4.2,90,0.00,,,0.00,Rainwise IP-100,2013-07-07 00:51:00,
2013-07-06 20:56:00,75.6,72.7,30.05,West,270,2.1,4.2,91,0.00,,,0.00,Rainwise IP-100,2013-07-07 00:56:00,
2013-07-06 21:01:00,75.6,72.7,30.05,West,270,3.7,5.1,91,0.00,,,0.00,Rainwise IP-100,2013-07-07 01:01:00,
2013-07-06 21:06:00,75.4,72.7,30.05,WSW,247,2.3,4.9,91,0.00,,,0.00,Rainwise IP-100,2013-07-07 01:06:00,
2013-07-06 21:11:00,75.1,72.3,30.05,West,270,1.6,4.7,91,0.00,,,0.00,Rainwise IP-100,2013-07-07 01:11:00,
2013-07-06 21:16:00,75.0,72.7,30.05,West,270,1.4,4.0,92,0.00,,,0.00,Rainwise IP-100,2013-07-07 01:16:00,
2013-07-06 21:21:00,74.8,72.3,30.05,West,270,2.3,5.1,92,0.00,,,0.00,Rainwise IP-100,2013-07-07 01:21:00,
2013-07-06 21:26:00,74.6,72.3,30.06,WSW,247,1.6,4.2,92,0.00,,,0.00,Rainwise IP-100,2013-07-07 01:26:00,
2013-07-06 21:31:00,74.6,72.7,30.06,WNW,292,1.9,4.9,93,0.00,,,0.00,Rainwise IP-100,2013-07-07 01:31:00,
2013-07-06 21:36:00,74.7,72.7,30.06,WSW,247,0.0,3.3,93,0.00,,,0.00,Rainwise IP-100,2013-07-07 01:36:00,
2013-07-06 21:41:00,74.7,72.7,30.06,WSW,247,0.0,3.3,93,0.00,,,0.00,Rainwise IP-100,2013-07-07 01:41:00,
2013-07-06 21:46:00,74.6,72.7,30.06,WSW,247,0.0,4.0,93,0.00,,,0.00,Rainwise IP-100,2013-07-07 01:46:00,
2013-07-06 21:51:00,74.6,72.7,30.06,WSW,247,0.0,2.8,93,0.00,,,0.00,Rainwise IP-100,2013-07-07 01:51:00,
2013-07-06 21:56:00,74.6,72.7,30.06,West,270,1.9,2.8,93,0.00,,,0.00,Rainwise IP-100,2013-07-07 01:56:00,
2013-07-06 22:01:00,74.5,73.0,30.06,WNW,292,2.1,3.5,94,0.00,,,0.00,Rainwise IP-100,2013-07-07 02:01:00,
2013-07-06 22:06:00,74.5,73.0,30.06,WSW,247,1.6,2.3,94,0.00,,,0.00,Rainwise IP-100,2013-07-07 02:06:00,
2013-07-06 22:11:00,74.4,72.7,30.06,WNW,292,2.3,4.2,94,0.00,,,0.00,Rainwise IP-100,2013-07-07 02:11:00,
2013-07-06 22:16:00,74.2,72.7,30.06,West,270,1.9,3.0,94,0.00,,,0.00,Rainwise IP-100,2013-07-07 02:16:00,
2013-07-06 22:21:00,74.2,72.7,30.06,West,270,2.1,3.0,94,0.00,,,0.00,Rainwise IP-100,2013-07-07 02:21:00,
2013-07-06 22:26:00,74.1,72.3,30.06,West,270,1.9,3.5,94,0.00,,,0.00,Rainwise IP-100,2013-07-07 02:26:00,
2013-07-06 22:31:00,74.1,72.7,30.06,WNW,292,3.0,3.0,95,0.00,,,0.00,Rainwise IP-100,2013-07-07 02:31:00,
2013-07-06 22:36:00,74.0,72.7,30.06,WNW,292,2.3,3.3,95,0.00,,,0.00,Rainwise IP-100,2013-07-07 02:36:00,
2013-07-06 22:41:00,74.0,72.7,30.06,SW,225,0.0,2.8,95,0.00,,,0.00,Rainwise IP-100,2013-07-07 02:41:00,
2013-07-06 22:46:00,74.0,72.7,30.06,NNW,337,1.4,3.3,95,0.00,,,0.00,Rainwise IP-100,2013-07-07 02:46:00,
2013-07-06 22:51:00,74.1,73.0,30.06,WNW,292,3.0,3.5,96,0.00,,,0.00,Rainwise IP-100,2013-07-07 02:51:00,
2013-07-06 22:56:00,74.2,73.3,30.06,WNW,292,1.9,4.2,96,0.00,,,0.00,Rainwise IP-100,2013-07-07 02:56:00,
2013-07-06 23:01:00,74.2,73.3,30.06,SSW,202,0.0,2.8,96,0.00,,,0.00,Rainwise IP-100,2013-07-07 03:01:00,
2013-07-06 23:06:00,74.2,73.3,30.06,SSW,202,1.9,4.9,96,0.00,,,0.00,Rainwise IP-100,2013-07-07 03:06:00,
2013-07-06 23:11:00,74.2,73.3,30.06,WNW,292,0.0,2.6,96,0.00,,,0.00,Rainwise IP-100,2013-07-07 03:11:00,
2013-07-06 23:16:00,74.2,73.3,30.06,WSW,247,1.6,2.3,96,0.00,,,0.00,Rainwise IP-100,2013-07-07 03:16:00,
2013-07-06 23:21:00,74.1,73.0,30.07,WSW,247,1.4,2.1,96,0.00,,,0.00,Rainwise IP-100,2013-07-07 03:21:00,
2013-07-06 23:26:00,74.1,73.0,30.06,SSW,202,0.0,1.9,96,0.00,,,0.00,Rainwise IP-100,2013-07-07 03:26:00,
2013-07-06 23:31:00,74.0,73.0,30.07,SSW,202,0.0,1.2,96,0.00,,,0.00,Rainwise IP-100,2013-07-07 03:31:00,
2013-07-06 23:36:00,73.9,73.0,30.06,SSW,202,1.4,1.6,97,0.00,,,0.00,Rainwise IP-100,2013-07-07 03:36:00,
2013-07-06 23:41:00,73.8,72.7,30.06,SSW,202,0.0,1.4,97,0.00,,,0.00,Rainwise IP-100,2013-07-07 03:41:00,
2013-07-06 23:46:00,73.8,72.7,30.06,SSW,202,0.0,0.0,97,0.00,,,0.00,Rainwise IP-100,2013-07-07 03:46:00,
2013-07-06 23:51:00,73.7,72.7,30.06,SSW,202,0.0,0.0,97,0.00,,,0.00,Rainwise IP-100,2013-07-07 03:51:00,
2013-07-06 23:56:00,73.5,72.7,30.06,South,180,0.0,3.0,97,0.00,,,0.00,Rainwise IP-100,2013-07-07 03:56:00,